This is the latest recevied weather packets stored in our database for station/object KE4ODN. If no packets are shown the sender has not sent any weather packets the latest 10 day(s).
| Time | Temp. | Humidity | Pressure | Rain* | Wind** | Luminosity | Snow |
|---|---|---|---|---|---|---|---|
| 1777653843 | 15.56° C | 82% | 1015.1 hPa | 0 mm | - | 111 W/m² | - |
| 1777653364 | 15.56° C | 83% | 1015.1 hPa | 0 mm | - | 120 W/m² | - |
| 1777652883 | 15° C | 82% | 1015.1 hPa | 0 mm | - | 123 W/m² | - |
| 1777652403 | 15.56° C | 83% | 1015.1 hPa | 0 mm | - | 120 W/m² | - |
| 1777651464 | 15° C | 82% | 1015.2 hPa | 0 mm | - | 100 W/m² | - |
| 1777650985 | 15° C | 84% | 1015.2 hPa | 0 mm | - | 95 W/m² | - |
| 1777649763 | 15° C | 86% | 1015.1 hPa | 0 mm | - | 127 W/m² | - |
| 1777648323 | 14.44° C | 84% | 1015 hPa | 0 mm | - | 67 W/m² | - |
| 1777648084 | 14.44° C | 84% | 1015 hPa | 0 mm | - | 65 W/m² | - |
| 1777646884 | 15° C | 83% | 1014.8 hPa | 0 mm | - | 72 W/m² | - |
| 1777646404 | 15° C | 84% | 1014.6 hPa | 0 mm | - | 63 W/m² | - |
| 1777645684 | 15° C | 86% | 1014.4 hPa | 0 mm | - | 84 W/m² | - |
| 1777644963 | 15° C | 87% | 1014.2 hPa | 0 mm | - | 105 W/m² | - |
| 1777644244 | 14.44° C | 87% | 1014 hPa | 0 mm | - | 141 W/m² | - |
| 1777643284 | 14.44° C | 88% | 1014 hPa | 0 mm | - | 111 W/m² | - |
| 1777643043 | 14.44° C | 89% | 1014 hPa | 0 mm | - | 111 W/m² | - |
| 1777641363 | 13.89° C | 90% | 1014.1 hPa | 0 mm | - | 63 W/m² | - |
| 1777640904 | 13.33° C | 90% | 1013.8 hPa | 0 mm | - | 53 W/m² | - |
| 1777640163 | 13.33° C | 90% | 1013.7 hPa | 0 mm | - | 49 W/m² | - |
| 1777639923 | 13.33° C | 90% | 1013.9 hPa | 0 mm | - | 37 W/m² | - |
| 1777638504 | 13.33° C | 89% | 1013.7 hPa | 0 mm | - | 23 W/m² | - |
| 1777636083 | 13.33° C | 93% | 1013.3 hPa | 0 mm | - | 19 W/m² | - |
| 1777634163 | 12.78° C | 93% | 1013.1 hPa | 0 mm | - | 9 W/m² | - |
| 1777632723 | 12.78° C | 92% | 1013.2 hPa | 0 mm | - | 0 W/m² | - |
| 1777630803 | 12.78° C | 92% | 1012.8 hPa | 0 mm | - | 0 W/m² | - |
* Rain latest hour (hover to see other rain measurements)
** Current wind speed in m/s (hover to see current wind gust speed)